Weather History for KPSN - May, 2013

Change the Weather History Date:

Thursday, May 16, 2013

  Actual Average (KTYR) Record (KTYR)
Temperature  
Mean Temperature 70 °F 73 °F  
Max Temperature 79 °F 83 °F 91 °F (2003)
Min Temperature 60 °F 64 °F 40 °F (1900)
Degree Days  
Heating Degree Days 0 0  
Month to date heating degree days 6  
Since 1 July heating degree days 2268  
Cooling Degree Days 4 8  
Month to date cooling degree days 105  
Year to date cooling degree days 217  
Growing Degree Days 20 (Base 50)    
Moisture  
Dew Point 64 °F    
Average Humidity 81    
Maximum Humidity 96    
Minimum Humidity 64    
Precipitation  
Precipitation 0.37 in 0.14 in 3.70 in (1939)
Month to date precipitation 2.47  
Year to date precipitation 16.63  
Snow  
Snow 0.00 in - - ()
Month to date snowfall  
Since 1 July snowfall  
Snow Depth -    
Sea Level Pressure  
Sea Level Pressure 29.86 in    
Wind  
Wind Speed 8 mph (SSE)    
Max Wind Speed 16 mph    
Max Gust Speed 22 mph    
Visibility 10 miles    
Events Rain    
T = Trace of Precipitation, MM = Missing Value Source: NWS Daily Summary

Daily Weather History Graph

Daily Weather History Graph

Search for Another Location

Airport or City:

Trip Planner

Search our weather history database for the weather conditions in past years. The results will help you decide how hot, cold, wet, or windy it might be!

Date:

Astronomy

May. 16, 2013 Rise Set
Actual Time 6:25 AM CDT 8:13 PM CDT
Civil Twilight 5:58 AM CDT 8:40 PM CDT
Nautical Twilight 5:25 AM CDT 9:13 PM CDT
Astronomical Twilight 4:51 AM CDT 9:47 PM CDT
Moon 11:52 AM CDT (5/16) 12:40 AM CDT (5/16)
Length of Visible Light 14h 42m
Length of Day
13h 48m
Waxing Crescent, 36% of the Moon is Illuminated
May 16
Waxing Crescent
May 17
First Quarter
May 24
Full
May 31
Last Quarter
Jun 8
New

Hourly Weather History & Observations

Time (CDT) Temp. Dew Point Humidity Pressure Visibility Wind Dir Wind Speed Gust Speed Precip Events Conditions
12:15 AM 68.0 °F 62.1 °F 81% 29.91 in 10.0 mi SSE 8.1 mph - N/A   Overcast
12:35 AM 68.0 °F 62.2 °F 82% 29.91 in 10.0 mi SSE 6.9 mph - N/A   Overcast
12:55 AM 68.0 °F 62.1 °F 81% 29.89 in 10.0 mi SSE 9.2 mph - N/A   Overcast
1:15 AM 68.0 °F 62.2 °F 82% 29.90 in 7.0 mi SSE 8.1 mph - N/A   Overcast
1:35 AM 68.0 °F 62.2 °F 82% 29.91 in 10.0 mi SSE 6.9 mph - N/A   Overcast
1:55 AM 68.0 °F 62.6 °F 83% 29.92 in 10.0 mi South 6.9 mph - N/A   Overcast
2:15 AM 67.5 °F 62.8 °F 85% 29.95 in 10.0 mi WSW 6.9 mph - N/A Rain Light Rain
2:35 AM 62.8 °F 59.9 °F 90% 29.96 in 3.0 mi West 8.1 mph 16.1 mph 0.16 in Rain Heavy Rain
2:55 AM 61.2 °F 59.0 °F 93% 29.95 in 5.0 mi Calm Calm - 0.24 in Rain Heavy Rain
3:15 AM 60.8 °F 59.0 °F 94% 29.90 in 7.0 mi ENE 4.6 mph - 0.05 in Rain Rain
3:35 AM 60.8 °F 59.2 °F 94% 29.86 in 10.0 mi East 9.2 mph - 0.10 in Rain Rain
3:55 AM 60.8 °F 59.2 °F 94% 29.83 in 10.0 mi East 12.7 mph - 0.12 in Rain Light Rain
4:15 AM 60.6 °F 59.0 °F 94% 29.85 in 10.0 mi SE 9.2 mph - N/A Rain Light Rain
4:35 AM 60.6 °F 59.0 °F 94% 29.85 in 10.0 mi SE 12.7 mph 17.3 mph N/A   Scattered Clouds
4:55 AM 60.8 °F 59.4 °F 95% 29.85 in 10.0 mi SE 6.9 mph - N/A   Scattered Clouds
5:15 AM 61.2 °F 59.9 °F 96% 29.88 in 10.0 mi South 10.4 mph - N/A   Scattered Clouds
5:35 AM 61.2 °F 59.7 °F 95% 29.86 in 10.0 mi SSE 9.2 mph - N/A   Mostly Cloudy
5:55 AM 60.8 °F 59.2 °F 94% 29.86 in 10.0 mi SSE 6.9 mph - N/A   Scattered Clouds
6:15 AM 60.8 °F 59.2 °F 94% 29.85 in 10.0 mi SE 5.8 mph - N/A   Clear
6:35 AM 60.8 °F 59.0 °F 94% 29.87 in 10.0 mi South 4.6 mph - N/A Rain Light Rain
6:55 AM 60.6 °F 58.8 °F 94% 29.86 in 10.0 mi SE 5.8 mph - N/A   Scattered Clouds
7:15 AM 60.1 °F 58.5 °F 94% 29.88 in 10.0 mi SSW 3.5 mph - N/A   Clear
7:35 AM 60.4 °F 58.8 °F 94% 29.87 in 10.0 mi ESE 4.6 mph - N/A   Clear
7:55 AM 61.2 °F 59.9 °F 96% 29.87 in 10.0 mi SE 4.6 mph - N/A   Clear
8:15 AM 62.2 °F 60.4 °F 94% 29.88 in 10.0 mi SSE 8.1 mph - N/A   Clear
8:35 AM 63.3 °F 60.6 °F 91% 29.87 in 10.0 mi SSE 8.1 mph - N/A   Clear
8:55 AM 64.4 °F 60.8 °F 88% 29.87 in 10.0 mi SSE 8.1 mph - N/A   Clear
9:15 AM 66.0 °F 61.2 °F 84% 29.87 in 10.0 mi SSE 5.8 mph - N/A   Clear
9:35 AM 68.2 °F 62.1 °F 81% 29.87 in 10.0 mi SSE 8.1 mph - N/A   Clear
9:55 AM 69.8 °F 62.2 °F 77% 29.86 in 10.0 mi SSE 11.5 mph 19.6 mph N/A   Clear
10:15 AM 72.0 °F 62.8 °F 73% 29.86 in 10.0 mi South 12.7 mph 17.3 mph N/A   Clear
10:35 AM 73.8 °F 63.5 °F 70% 29.85 in 10.0 mi SSE 11.5 mph - N/A   Clear
10:55 AM 74.8 °F 63.3 °F 67% 29.86 in 10.0 mi SSE 16.1 mph 21.9 mph 0.01 in   Clear
11:15 AM 75.4 °F 63.7 °F 67% 29.86 in 10.0 mi South 13.8 mph 19.6 mph N/A   Scattered Clouds
11:35 AM 77.0 °F 64.6 °F 65% 29.87 in 10.0 mi South 12.7 mph 17.3 mph N/A   Mostly Cloudy
11:55 AM 77.7 °F 64.6 °F 64% 29.87 in 10.0 mi South 11.5 mph 17.3 mph N/A   Overcast
12:15 PM 76.5 °F 65.1 °F 68% 29.87 in 10.0 mi South 9.2 mph - N/A   Overcast
12:35 PM 76.5 °F 65.3 °F 68% 29.87 in 10.0 mi South 12.7 mph 20.7 mph N/A   Overcast
12:55 PM 76.5 °F 65.3 °F 68% 29.87 in 10.0 mi South 10.4 mph - N/A   Overcast
1:15 PM 76.1 °F 65.7 °F 70% 29.87 in 10.0 mi South 8.1 mph - N/A   Overcast
1:35 PM 76.1 °F 65.8 °F 70% 29.86 in 10.0 mi South 9.2 mph - N/A   Overcast
1:55 PM 75.9 °F 66.0 °F 71% 29.87 in 10.0 mi South 5.8 mph - N/A   Overcast
2:15 PM 76.3 °F 66.2 °F 71% 29.86 in 10.0 mi SSE 6.9 mph 16.1 mph N/A   Overcast
2:35 PM 76.5 °F 66.4 °F 71% 29.85 in 10.0 mi SSE 5.8 mph - N/A   Overcast
2:55 PM 77.2 °F 66.6 °F 70% 29.85 in 10.0 mi South 6.9 mph 16.1 mph N/A   Overcast
3:15 PM 78.4 °F 67.3 °F 68% 29.85 in 10.0 mi SE 5.8 mph - N/A   Mostly Cloudy
3:35 PM 77.9 °F 67.3 °F 70% 29.85 in 10.0 mi South 5.8 mph - N/A   Overcast
3:55 PM 79.0 °F 67.5 °F 68% 29.84 in 10.0 mi SSE 8.1 mph - N/A   Mostly Cloudy
4:15 PM 78.1 °F 67.5 °F 70% 29.83 in 10.0 mi South 5.8 mph - N/A   Overcast
4:35 PM 79.0 °F 67.8 °F 69% 29.83 in 10.0 mi SSE 6.9 mph - N/A   Mostly Cloudy
4:55 PM 79.2 °F 68.4 °F 69% 29.82 in 10.0 mi South 9.2 mph - N/A   Overcast
5:15 PM 79.5 °F 68.4 °F 69% 29.82 in 10.0 mi SE 6.9 mph - N/A   Mostly Cloudy
5:35 PM 78.8 °F 68.0 °F 69% 29.81 in 10.0 mi SE 6.9 mph - N/A   Overcast
5:55 PM 78.6 °F 68.7 °F 72% 29.81 in 10.0 mi SE 5.8 mph - N/A   Overcast
6:15 PM 78.4 °F 68.9 °F 72% 29.80 in 10.0 mi SE 3.5 mph - N/A   Overcast
6:35 PM 78.3 °F 68.9 °F 73% 29.80 in 10.0 mi SE 3.5 mph - N/A   Overcast
6:55 PM 78.1 °F 69.4 °F 75% 29.80 in 10.0 mi SE 3.5 mph - N/A   Overcast
7:15 PM 77.9 °F 69.3 °F 75% 29.80 in 10.0 mi SE 3.5 mph - N/A   Overcast
7:35 PM 77.4 °F 69.1 °F 76% 29.80 in 10.0 mi Calm Calm - N/A   Scattered Clouds
7:55 PM 77.0 °F 69.3 °F 77% 29.80 in 10.0 mi Calm Calm - N/A   Mostly Cloudy
8:15 PM 75.7 °F 69.3 °F 80% 29.81 in 10.0 mi SE 4.6 mph - N/A   Mostly Cloudy
8:35 PM 75.6 °F 68.9 °F 80% 29.81 in 10.0 mi SE 5.8 mph - N/A   Mostly Cloudy
8:55 PM 75.4 °F 68.9 °F 80% 29.81 in 10.0 mi SE 6.9 mph - N/A   Mostly Cloudy
9:15 PM 74.8 °F 68.9 °F 82% 29.82 in 10.0 mi SE 5.8 mph - N/A   Mostly Cloudy
9:35 PM 74.3 °F 68.5 °F 82% 29.82 in 10.0 mi SE 8.1 mph - N/A   Scattered Clouds
9:55 PM 73.4 °F 68.4 °F 84% 29.82 in 10.0 mi SSE 9.2 mph - N/A   Scattered Clouds
10:15 PM 72.7 °F 68.2 °F 86% 29.83 in 10.0 mi SSE 6.9 mph - N/A   Clear
10:35 PM 72.0 °F 68.0 °F 87% 29.84 in 10.0 mi SE 5.8 mph - N/A   Clear
10:55 PM 71.6 °F 68.0 °F 88% 29.85 in 10.0 mi SE 5.8 mph - N/A   Clear
11:15 PM 71.1 °F 67.6 °F 89% 29.85 in 10.0 mi SSE 5.8 mph - N/A   Mostly Cloudy
11:35 PM 71.1 °F 67.6 °F 89% 29.85 in 7.0 mi SSE 5.8 mph - N/A   Overcast
11:55 PM 70.9 °F 67.5 °F 89% 29.86 in 7.0 mi SE 6.9 mph - N/A   Overcast